This demonstration page uses our WeatherBlox Daily Observations layout. Learn more.

Left ArrowRight Arrow

Hourly Observations for May 27, 2021

Temp ( °F °C ) Dew Point ( °F °C ) Humidity (%) Winds ( mph kmh ) Pressure ( in mb ) Visibility ( mi km ) Precip ( " mm )
12:15 am 00:15 Clear 62 16.9 58 14.2 84 84 Calm 30.09 1019 10 16 0.00 0.00
12:35 am 00:35 Clear 62 16.4 58 14.5 89 89 Calm 30.09 1019 10 16 0.00 0.00
12:55 am 00:55 Clear 61 16.1 57 14.1 88 88 Calm 30.10 1019 10 16 0.00 0.00
1:15 am 01:15 Clear 60 15.7 57 14 90 90 Calm 30.10 1019 10 16 0.00 0.00
1:35 am 01:35 Clear 60 15.7 57 14.1 90 90 Calm 30.10 1019 10 16 0.00 0.00
1:55 am 01:55 Clear 60 15.5 57 13.8 90 90 Calm 30.09 1019 10 16 0.00 0.00
2:15 am 02:15 Clear 59 14.8 56 13.6 93 93 Calm 30.09 1019 10 16 0.00 0.00
2:35 am 02:35 Clear 58 14.5 56 13.1 91 91 Calm 30.09 1019 10 16 0.00 0.00
2:55 am 02:55 Clear 57 13.7 55 12.7 94 94 Calm 30.09 1019 10 16 0.00 0.00
3:15 am 03:15 Clear 57 13.9 56 13.1 95 95 Calm 30.09 1019 10 16 0.00 0.00
3:35 am 03:35 Clear 56 13.3 55 12.7 96 96 Calm 30.09 1019 10 16 0.00 0.00
3:55 am 03:55 Clear 57 14 56 13.3 96 96 Calm 30.09 1019 10 16 0.00 0.00
4:15 am 04:15 Clear 56 13.4 55 12.6 95 95 Calm 30.10 1019 10 16 0.00 0.00
4:35 am 04:35 Clear 56 13.1 55 12.5 96 96 Calm 30.10 1019 10 16 0.00 0.00
4:55 am 04:55 Clear 56 13.2 55 12.5 96 96 Calm 30.10 1019 10 16 0.00 0.00
5:15 am 05:15 Clear 55 13 54 12.3 96 96 Calm 30.10 1019 10 16 0.00 0.00
5:35 am 05:35 Clear 56 13.1 55 12.5 96 96 Calm 30.10 1019 10 16 0.00 0.00
5:55 am 05:55 Clear 56 13.2 55 12.5 96 96 Calm 30.10 1019 10 16 0.00 0.00
6:15 am 06:15 Clear 55 12.9 54 12.2 96 96 NNE 3 6 30.10 1019 10 16 0.00 0.00
6:35 am 06:35 Sunny 55 12.9 54 12.2 96 96 Calm 30.11 1020 10 16 0.00 0.00
6:55 am 06:55 Sunny 56 13.2 54 12 93 93 Calm 30.12 1020 10 16 0.00 0.00
7:15 am 07:15 Sunny 57 14.1 54 12.1 88 88 Calm 30.12 1020 10 16 0.00 0.00
7:35 am 07:35 Sunny 59 14.8 56 13.2 90 90 Calm 30.11 1020 10 16 0.00 0.00
7:55 am 07:55 Sunny 62 16.7 56 13.5 82 82 Calm 30.11 1020 10 16 0.00 0.00
8:15 am 08:15 Sunny 63 17.2 57 14 82 82 ENE 6 9 30.11 1019 10 16 0.00 0.00
8:35 am 08:35 Sunny 64 17.9 58 14.5 81 81 E 6 9 30.11 1020 10 16 0.00 0.00
8:55 am 08:55 Sunny 65 18.2 58 14.3 78 78 ENE 6 9 30.10 1019 10 16 0.00 0.00
9:15 am 09:15 Sunny 66 18.9 58 14.3 75 75 E 8 13 30.09 1019 10 16 0.00 0.00
9:35 am 09:35 Sunny 68 19.9 58 14.5 71 71 E 7 11 30.09 1019 10 16 0.00 0.00
9:55 am 09:55 Sunny 68 20.1 58 14.3 69 69 E 7 11 30.09 1019 10 16 0.00 0.00
10:15 am 10:15 Sunny 68 20.1 58 14.6 71 71 E 5 7 30.09 1019 10 16 0.00 0.00
10:35 am 10:35 Sunny 69 20.5 59 14.9 70 70 ESE 7 11 30.08 1019 10 16 0.00 0.00
10:55 am 10:55 Sunny 69 20.7 58 14.7 69 69 ESE 5 7 30.08 1019 10 16 0.00 0.00
11:15 am 11:15 Sunny 71 21.6 59 15.2 67 67 ESE 5 7 30.08 1019 10 16 0.00 0.00
11:35 am 11:35 Sunny 72 22.1 59 14.8 63 63 E 5 7 30.08 1019 10 16 0.00 0.00
11:55 am 11:55 Partly Cloudy 72 22.4 58 14.6 61 61 ESE 5 7 30.08 1019 10 16 0.00 0.00
12:15 pm 12:15 Partly Cloudy 74 23.2 58 14.2 57 57 SSE 5 7 30.07 1018 10 16 0.00 0.00
12:35 pm 12:35 Sunny 74 23.5 58 14.3 56 56 SE 6 9 30.05 1018 10 16 0.00 0.00
12:55 pm 12:55 Sunny 74 23.5 57 13.7 54 54 SE 6 9 30.04 1017 10 16 0.00 0.00
1:15 pm 13:15 Sunny 76 24.4 58 14.2 53 53 S 5 7 30.04 1017 10 16 0.00 0.00
1:35 pm 13:35 Hazy 76 24.4 56 13.3 50 50 SSE 6 9 30.03 1017 5 8 0.00 0.00
1:55 pm 13:55 Partly Cloudy 76 24.6 57 13.8 51 51 ESE 7 11 30.02 1017 10 16 0.00 0.00
2:15 pm 14:15 Partly Cloudy 78 25.5 60 15.5 54 54 E 5 7 30.00 1016 7 11 0.00 0.00
2:35 pm 14:35 Partly Cloudy 78 25.3 59 14.9 53 53 SSE 7 11 29.99 1016 10 16 0.00 0.00
2:55 pm 14:55 Partly Cloudy 78 25.3 56 13.6 48 48 SE 7 11 29.98 1015 10 16 0.00 0.00
3:15 pm 15:15 Sunny 78 25.4 57 13.9 49 49 SE 8 13 29.97 1015 10 16 0.00 0.00
3:35 pm 15:35 Partly Cloudy 78 25.5 57 13.9 49 49 S 9 15 29.96 1015 10 16 0.00 0.00
3:55 pm 15:55 Sunny 78 25.5 58 14.6 51 51 S 7 11 29.95 1014 10 16 0.00 0.00
4:15 pm 16:15 Sunny 78 25.7 59 15 52 52 SSE 8 13 29.95 1014 10 16 0.00 0.00
4:35 pm 16:35 Sunny 79 26.1 59 14.8 50 50 SSE 7 11 29.93 1013 10 16 0.00 0.00
4:55 pm 16:55 Sunny 79 26 59 14.8 50 50 S 8 13 29.93 1013 10 16 0.00 0.00
5:15 pm 17:15 Mostly Cloudy 79 26.2 60 15.3 51 51 S 9 15 29.92 1013 10 16 0.00 0.00
5:35 pm 17:35 Mostly Cloudy 79 26.2 58 14.6 49 49 S 14 22 29.91 1013 10 16 0.00 0.00
5:55 pm 17:55 Mostly Cloudy 78 25.8 56 13.3 46 46 SSW 15 24 29.91 1013 10 16 0.00 0.00
6:15 pm 18:15 Mostly Cloudy 78 25.6 57 14.1 49 49 SSW 12 19 29.91 1013 10 16 0.00 0.00
6:35 pm 18:35 Mostly Cloudy 78 25.5 57 13.7 48 48 SSW 13 20 29.90 1012 10 16 0.00 0.00
6:55 pm 18:55 Mostly Cloudy 77 25.1 57 13.8 50 50 SSW 10 17 29.90 1013 10 16 0.00 0.00
7:15 pm 19:15 Cloudy 77 24.9 57 14 51 51 S 12 19 29.89 1012 10 16 0.00 0.00
7:35 pm 19:35 Mostly Cloudy 76 24.6 58 14.7 54 54 S 12 19 29.88 1012 10 16 0.00 0.00
7:55 pm 19:55 Mostly Cloudy 76 24.3 59 15 56 56 S 10 17 29.88 1012 10 16 0.00 0.00
8:15 pm 20:15 Partly Cloudy 75 24.1 60 15.4 58 58 S 10 17 29.88 1012 10 16 0.00 0.00
8:35 pm 20:35 Partly Cloudy 75 23.8 60 15.7 61 61 SSW 12 19 29.88 1012 10 16 0.00 0.00
8:55 pm 20:55 Partly Cloudy 75 23.7 61 16 62 62 SSW 8 13 29.88 1012 10 16 0.00 0.00
9:15 pm 21:15 Partly Cloudy 74 23.2 61 16.2 65 65 SW 7 11 29.89 1012 10 16 0.00 0.00
9:35 pm 21:35 Partly Cloudy 74 23.1 61 16.2 65 65 SSW 7 11 29.89 1012 10 16 0.00 0.00
9:55 pm 21:55 Mostly Cloudy with Light Rain 73 22.8 61 16.2 66 66 SSW 8 13 29.89 1012 10 16 0.00 0.00
10:15 pm 22:15 Cloudy with Drizzle 71 21.8 62 16.8 73 73 SW 7 11 29.89 1012 10 16 0.00 0.00
10:35 pm 22:35 Mostly Cloudy with Light Rain 70 21.2 63 17 77 77 Calm 29.89 1012 10 16 0.00 0.00
10:55 pm 22:55 Mostly Cloudy 69 20.3 63 17.3 83 83 NNW 6 9 29.89 1012 10 16 0.00 0.00
11:15 pm 23:15 Cloudy 70 20.9 62 16.5 76 76 WNW 3 6 29.88 1012 10 16 0.00 0.00
11:35 pm 23:35 Cloudy 69 20.5 62 16.4 77 77 W 3 6 29.88 1012 10 16 0.00 0.00
11:55 pm 23:55 Partly Cloudy 68 20.2 62 16.6 80 80 Calm 29.88 1012 10 16 0.00 0.00

Powered by AerisWeather